Location: Ch�tillon
(48.8024°N, 2.2935°E)
Time: 18:45:23
(UTC+00:00)

RS-15 - Pass Details

Date: 30 June 2022
Orbit: 1881 x 2163 km, 64.8° (Epoch: 11 August)

Event Time Altitude Azimuth Distance (km) Brightness Sun altitude
Rises 00:18:22 0° 321° (NW) 5,700 11.2 -17.8°
Reaches altitude 10° 00:21:54 10° 318° (NW) 4,692 10.6 -17.8°
Maximum altitude 00:33:48 58° 245° (WSW) 2,409 8.3 -17.5°
Enters shadow 00:42:36 20° 175° (S) 3,804 8.9 -17.2°
